Zeit;wasserstand;wasserstand_status;abfluss;abfluss_status
2002-02-20 00:00:00;201.0;0;;1
2002-02-21 00:00:00;215.0;0;;1
2002-02-22 00:00:00;212.0;0;;1
2002-02-23 00:00:00;248.0;0;;1
2002-02-24 00:00:00;264.0;0;;1
2002-02-25 00:00:00;249.0;0;;1
2002-02-26 00:00:00;251.0;0;;1
2002-02-27 00:00:00;291.0;0;;1
2002-02-28 00:00:00;280.0;0;;1
2002-03-01 00:00:00;258.0;0;;1
2002-03-02 00:00:00;239.0;0;;1
2002-03-03 00:00:00;229.0;0;;1
2002-03-04 00:00:00;221.0;0;;1
2002-03-05 00:00:00;211.0;0;;1
2002-03-06 00:00:00;208.0;0;;1
2002-03-07 00:00:00;228.0;0;;1
2002-03-08 00:00:00;235.0;0;;1
2002-03-09 00:00:00;221.0;0;;1
2002-03-10 00:00:00;211.0;0;;1
2002-03-11 00:00:00;198.0;0;;1
2002-03-12 00:00:00;189.0;0;;1
2002-03-13 00:00:00;178.0;0;;1
2002-03-14 00:00:00;167.0;0;;1
2002-03-15 00:00:00;152.0;0;;1
2002-03-16 00:00:00;147.0;0;;1
2002-03-17 00:00:00;147.0;0;;1
2002-03-18 00:00:00;155.0;0;;1
2002-03-19 00:00:00;182.0;0;;1
2002-03-20 00:00:00;184.0;0;;1
2002-03-21 00:00:00;170.0;0;;1
2002-03-22 00:00:00;169.0;0;;1
2002-03-23 00:00:00;158.0;0;;1
2002-03-24 00:00:00;145.0;0;;1
2002-03-25 00:00:00;140.0;0;;1
2002-03-26 00:00:00;140.0;0;;1
2002-03-27 00:00:00;137.0;0;;1
2002-03-28 00:00:00;137.0;0;;1
2002-03-29 00:00:00;135.0;0;;1
2002-03-30 00:00:00;135.0;0;;1
2002-03-31 00:00:00;133.0;0;;1
2002-04-01 00:00:00;132.0;0;;1
2002-04-02 00:00:00;118.0;0;;1
2002-04-03 00:00:00;106.0;0;;1
2002-04-04 00:00:00;101.0;0;;1
2002-04-05 00:00:00;98.0;0;;1
2002-04-06 00:00:00;96.0;0;;1
2002-04-07 00:00:00;97.0;0;;1
2002-04-08 00:00:00;96.0;0;;1
2002-04-09 00:00:00;100.0;0;;1
2002-04-10 00:00:00;96.0;0;;1
2002-04-11 00:00:00;95.0;0;;1
2002-04-12 00:00:00;103.0;0;;1
2002-04-13 00:00:00;105.0;0;;1
2002-04-14 00:00:00;107.0;0;;1
2002-04-15 00:00:00;108.0;0;;1
2002-04-16 00:00:00;107.0;0;;1
2002-04-17 00:00:00;106.0;0;;1
2002-04-18 00:00:00;105.0;0;;1
2002-04-19 00:00:00;103.0;0;;1
2002-04-20 00:00:00;110.0;0;;1
2002-04-21 00:00:00;103.0;0;;1
2002-04-22 00:00:00;100.0;0;;1
2002-04-23 00:00:00;107.0;0;;1
2002-04-24 00:00:00;104.0;0;;1
2002-04-25 00:00:00;105.0;0;;1
2002-04-26 00:00:00;110.0;0;;1
2002-04-27 00:00:00;134.0;0;;1
2002-04-28 00:00:00;129.0;0;;1
2002-04-29 00:00:00;135.0;0;;1
2002-04-30 00:00:00;143.0;0;;1
2002-05-01 00:00:00;127.0;0;;1
2002-05-02 00:00:00;117.0;0;;1
2002-05-03 00:00:00;112.0;0;;1
2002-05-04 00:00:00;116.0;0;;1
2002-05-05 00:00:00;120.0;0;;1
2002-05-06 00:00:00;118.0;0;;1
2002-05-07 00:00:00;110.0;0;;1
2002-05-08 00:00:00;107.0;0;;1
2002-05-09 00:00:00;104.0;0;;1
2002-05-10 00:00:00;102.0;0;;1
2002-05-11 00:00:00;109.0;0;;1
2002-05-12 00:00:00;143.0;0;;1
2002-05-13 00:00:00;118.0;0;;1
2002-05-14 00:00:00;112.0;0;;1
2002-05-15 00:00:00;114.0;0;;1
2002-05-16 00:00:00;110.0;0;;1
2002-05-17 00:00:00;105.0;0;;1
2002-05-18 00:00:00;97.0;0;;1
2002-05-19 00:00:00;100.0;0;;1
2002-05-20 00:00:00;96.0;0;;1
2002-05-21 00:00:00;92.0;0;;1
2002-05-22 00:00:00;94.0;0;;1
2002-05-23 00:00:00;99.0;0;;1
2002-05-24 00:00:00;106.0;0;;1
2002-05-25 00:00:00;104.0;0;;1
2002-05-26 00:00:00;100.0;0;;1
2002-05-27 00:00:00;96.0;0;;1
2002-05-28 00:00:00;94.0;0;;1
2002-05-29 00:00:00;96.0;0;;1
2002-05-30 00:00:00;96.0;0;;1
2002-05-31 00:00:00;99.0;0;;1
2002-06-01 00:00:00;96.0;0;;1
2002-06-02 00:00:00;83.0;0;;1
2002-06-03 00:00:00;78.0;0;;1
2002-06-04 00:00:00;82.0;0;;1
2002-06-05 00:00:00;79.0;0;;1
2002-06-06 00:00:00;76.0;0;;1
2002-06-07 00:00:00;79.0;0;;1
2002-06-08 00:00:00;83.0;0;;1
2002-06-09 00:00:00;84.0;0;;1
2002-06-10 00:00:00;87.0;0;;1
2002-06-11 00:00:00;91.0;0;;1
2002-06-12 00:00:00;91.0;0;;1
2002-06-13 00:00:00;103.0;0;;1
2002-06-14 00:00:00;101.0;0;;1
2002-06-15 00:00:00;91.0;0;;1
2002-06-16 00:00:00;93.0;0;;1
2002-06-17 00:00:00;80.0;0;;1
2002-06-18 00:00:00;84.0;0;;1
2002-06-19 00:00:00;95.0;0;;1
2002-06-20 00:00:00;83.0;0;;1
2002-06-21 00:00:00;91.0;0;;1
2002-06-22 00:00:00;86.0;0;;1
2002-06-23 00:00:00;97.0;0;;1
2002-06-24 00:00:00;98.0;0;;1
2002-06-25 00:00:00;92.0;0;;1
2002-06-26 00:00:00;91.0;0;;1
2002-06-27 00:00:00;100.0;0;;1
2002-06-28 00:00:00;119.0;0;;1
2002-06-29 00:00:00;118.0;0;;1
2002-06-30 00:00:00;104.0;0;;1
2002-07-01 00:00:00;145.0;0;;1
2002-07-02 00:00:00;132.0;0;;1
2002-07-03 00:00:00;134.0;0;;1
2002-07-04 00:00:00;131.0;0;;1
2002-07-05 00:00:00;118.0;0;;1
2002-07-06 00:00:00;111.0;0;;1
2002-07-07 00:00:00;107.0;0;;1
2002-07-08 00:00:00;99.0;0;;1
2002-07-09 00:00:00;96.0;0;;1
2002-07-10 00:00:00;121.0;0;;1
2002-07-11 00:00:00;182.0;0;;1
2002-07-12 00:00:00;185.0;0;;1
2002-07-13 00:00:00;159.0;0;;1
2002-07-14 00:00:00;137.0;0;;1
2002-07-15 00:00:00;121.0;0;;1
2002-07-16 00:00:00;111.0;0;;1
2002-07-17 00:00:00;108.0;0;;1
2002-07-18 00:00:00;164.0;0;;1
2002-07-19 00:00:00;208.0;0;;1
2002-07-20 00:00:00;236.0;0;;1
2002-07-21 00:00:00;237.0;0;;1
2002-07-22 00:00:00;226.0;0;;1
2002-07-23 00:00:00;212.0;0;;1
2002-07-24 00:00:00;193.0;0;;1
2002-07-25 00:00:00;192.0;0;;1
2002-07-26 00:00:00;178.0;0;;1
2002-07-27 00:00:00;160.0;0;;1
2002-07-28 00:00:00;145.0;0;;1
2002-07-29 00:00:00;136.0;0;;1
2002-07-30 00:00:00;125.0;0;;1
2002-07-31 00:00:00;119.0;0;;1
2002-08-01 00:00:00;114.0;0;;1
2002-08-02 00:00:00;123.0;0;;1
2002-08-03 00:00:00;115.0;0;;1
2002-08-04 00:00:00;109.0;0;;1
2002-08-05 00:00:00;133.0;0;;1
2002-08-06 00:00:00;187.0;0;;1
2002-08-07 00:00:00;198.0;0;;1
2002-08-08 00:00:00;194.0;0;;1
2002-08-09 00:00:00;197.0;0;;1
2002-08-10 00:00:00;191.0;0;;1
2002-08-11 00:00:00;170.0;0;;1
2002-08-12 00:00:00;173.0;0;;1
2002-08-13 00:00:00;174.0;0;;1
2002-08-14 00:00:00;155.0;0;;1
2002-08-15 00:00:00;136.0;0;;1
2002-08-16 00:00:00;129.0;0;;1
2002-08-17 00:00:00;120.0;0;;1
2002-08-18 00:00:00;111.0;0;;1
2002-08-19 00:00:00;113.0;0;;1
2002-08-20 00:00:00;111.0;0;;1
2002-08-21 00:00:00;115.0;0;;1
2002-08-22 00:00:00;118.0;0;;1
2002-08-23 00:00:00;120.0;0;;1
2002-08-24 00:00:00;115.0;0;;1
2002-08-25 00:00:00;121.0;0;;1
2002-08-26 00:00:00;117.0;0;;1
2002-08-27 00:00:00;110.0;0;;1
2002-08-28 00:00:00;109.0;0;;1
2002-08-29 00:00:00;104.0;0;;1
2002-08-30 00:00:00;108.0;0;;1
2002-08-31 00:00:00;107.0;0;;1
2002-09-01 00:00:00;103.0;0;;1
2002-09-02 00:00:00;85.0;0;;1
2002-09-03 00:00:00;86.0;0;;1
2002-09-04 00:00:00;88.0;0;;1
2002-09-05 00:00:00;99.0;0;;1
2002-09-06 00:00:00;101.0;0;;1
2002-09-07 00:00:00;100.0;0;;1
2002-09-08 00:00:00;94.0;0;;1
2002-09-09 00:00:00;83.0;0;;1
2002-09-10 00:00:00;91.0;0;;1
2002-09-11 00:00:00;87.0;0;;1
2002-09-12 00:00:00;83.0;0;;1
2002-09-13 00:00:00;84.0;0;;1
2002-09-14 00:00:00;87.0;0;;1
2002-09-15 00:00:00;81.0;0;;1
2002-09-16 00:00:00;82.0;0;;1
2002-09-17 00:00:00;90.0;0;;1
2002-09-18 00:00:00;93.0;0;;1
2002-09-19 00:00:00;86.0;0;;1
2002-09-20 00:00:00;91.0;0;;1
2002-09-21 00:00:00;93.0;0;;1
2002-09-22 00:00:00;94.0;0;;1
2002-09-23 00:00:00;81.0;0;;1
2002-09-24 00:00:00;85.0;0;;1
2002-09-25 00:00:00;92.0;0;;1
2002-09-26 00:00:00;101.0;0;;1
2002-09-27 00:00:00;93.0;0;;1
2002-09-28 00:00:00;87.0;0;;1
2002-09-29 00:00:00;84.0;0;;1
2002-09-30 00:00:00;79.0;0;;1
2002-10-01 00:00:00;75.0;0;;1
2002-10-02 00:00:00;74.0;0;;1
2002-10-03 00:00:00;79.0;0;;1
2002-10-04 00:00:00;101.0;0;;1
2002-10-05 00:00:00;99.0;0;;1
2002-10-06 00:00:00;100.0;0;;1
2002-10-07 00:00:00;85.0;0;;1
2002-10-08 00:00:00;83.0;0;;1
2002-10-09 00:00:00;73.0;0;;1
2002-10-10 00:00:00;66.0;0;;1
2002-10-11 00:00:00;64.0;0;;1
2002-10-12 00:00:00;62.0;0;;1
2002-10-13 00:00:00;63.0;0;;1
2002-10-14 00:00:00;63.0;0;;1
2002-10-15 00:00:00;74.0;0;;1
2002-10-16 00:00:00;75.0;0;;1
2002-10-17 00:00:00;101.0;0;;1
2002-10-18 00:00:00;104.0;0;;1
2002-10-19 00:00:00;99.0;0;;1
2002-10-20 00:00:00;100.0;0;;1
2002-10-21 00:00:00;82.0;0;;1
2002-10-22 00:00:00;107.0;0;;1
2002-10-23 00:00:00;120.0;0;;1
2002-10-24 00:00:00;139.0;0;;1
2002-10-25 00:00:00;112.0;0;;1
2002-10-26 00:00:00;164.0;0;;1
2002-10-27 00:00:00;180.0;0;;1
2002-10-28 00:00:00;210.0;0;;1
2002-10-29 00:00:00;165.0;0;;1
2002-10-30 00:00:00;148.0;0;;1
2002-10-31 00:00:00;131.0;0;;1
2002-11-01 00:00:00;125.0;0;;1
2002-11-02 00:00:00;126.0;0;;1
2002-11-03 00:00:00;121.0;0;;1
2002-11-04 00:00:00;144.0;0;;1
2002-11-05 00:00:00;144.0;0;;1
2002-11-06 00:00:00;129.0;0;;1
2002-11-07 00:00:00;141.0;0;;1
2002-11-08 00:00:00;148.0;0;;1
2002-11-09 00:00:00;166.0;0;;1
2002-11-10 00:00:00;176.0;0;;1
2002-11-11 00:00:00;150.0;0;;1
2002-11-12 00:00:00;144.0;0;;1
2002-11-13 00:00:00;140.0;0;;1
2002-11-14 00:00:00;138.0;0;;1
2002-11-15 00:00:00;136.0;0;;1
2002-11-16 00:00:00;127.0;0;;1
2002-11-17 00:00:00;170.0;0;;1
2002-11-18 00:00:00;194.0;0;;1
2002-11-19 00:00:00;179.0;0;;1
2002-11-20 00:00:00;156.0;0;;1
2002-11-21 00:00:00;135.0;0;;1
2002-11-22 00:00:00;129.0;0;;1
2002-11-23 00:00:00;140.0;0;;1
2002-11-24 00:00:00;143.0;0;;1
2002-11-25 00:00:00;139.0;0;;1
2002-11-26 00:00:00;141.0;0;;1
2002-11-27 00:00:00;130.0;0;;1
2002-11-28 00:00:00;118.0;0;;1
2002-11-29 00:00:00;126.0;0;;1
2002-11-30 00:00:00;121.0;0;;1
2002-12-01 00:00:00;117.0;0;;1
2002-12-02 00:00:00;116.0;0;;1
2002-12-03 00:00:00;121.0;0;;1
2002-12-04 00:00:00;111.0;0;;1
2002-12-05 00:00:00;115.0;0;;1
2002-12-06 00:00:00;106.0;0;;1
2002-12-07 00:00:00;100.0;0;;1
2002-12-08 00:00:00;96.0;0;;1
2002-12-09 00:00:00;95.0;0;;1
2002-12-10 00:00:00;93.0;0;;1
2002-12-11 00:00:00;91.0;0;;1
2002-12-12 00:00:00;89.0;0;;1
2002-12-13 00:00:00;89.0;0;;1
2002-12-14 00:00:00;87.0;0;;1
2002-12-15 00:00:00;85.0;0;;1
2002-12-16 00:00:00;85.0;0;;1
2002-12-17 00:00:00;91.0;0;;1
2002-12-18 00:00:00;93.0;0;;1
2002-12-19 00:00:00;92.0;0;;1
2002-12-20 00:00:00;96.0;0;;1
2002-12-21 00:00:00;103.0;0;;1
2002-12-22 00:00:00;90.0;0;;1
2002-12-23 00:00:00;84.0;0;;1
2002-12-24 00:00:00;80.0;0;;1
2002-12-25 00:00:00;82.0;0;;1
2002-12-26 00:00:00;91.0;0;;1
2002-12-27 00:00:00;112.0;0;;1
2002-12-28 00:00:00;158.0;0;;1
2002-12-29 00:00:00;156.0;0;;1
2002-12-30 00:00:00;153.0;0;;1
2002-12-31 00:00:00;132.0;0;;1
2003-01-01 00:00:00;122.0;0;;1
2003-01-02 00:00:00;127.0;0;;1
2003-01-03 00:00:00;129.0;0;;1
2003-01-04 00:00:00;121.0;0;;1
2003-01-05 00:00:00;123.0;0;;1
2003-01-06 00:00:00;118.0;0;;1
2003-01-07 00:00:00;111.0;0;;1
2003-01-08 00:00:00;112.0;0;;1
2003-01-09 00:00:00;109.0;0;;1
2003-01-10 00:00:00;103.0;0;;1
2003-01-11 00:00:00;100.0;0;;1
2003-01-12 00:00:00;105.0;0;;1
2003-01-13 00:00:00;140.0;0;;1
2003-01-14 00:00:00;198.0;0;;1
2003-01-15 00:00:00;211.0;0;;1
2003-01-16 00:00:00;214.0;0;;1
2003-01-17 00:00:00;183.0;0;;1
2003-01-18 00:00:00;172.0;0;;1
2003-01-19 00:00:00;153.0;0;;1
2003-01-20 00:00:00;150.0;0;;1
2003-01-21 00:00:00;147.0;0;;1
2003-01-22 00:00:00;148.0;0;;1
2003-01-23 00:00:00;147.0;0;;1
2003-01-24 00:00:00;132.0;0;;1
2003-01-25 00:00:00;129.0;0;;1
2003-01-26 00:00:00;145.0;0;;1
2003-01-27 00:00:00;141.0;0;;1
2003-01-28 00:00:00;183.0;0;;1
2003-01-29 00:00:00;190.0;0;;1
2003-01-30 00:00:00;170.0;0;;1
2003-01-31 00:00:00;153.0;0;;1
2003-02-01 00:00:00;135.0;0;;1
2003-02-02 00:00:00;135.0;0;;1
2003-02-03 00:00:00;160.0;0;;1
2003-02-04 00:00:00;173.0;0;;1
2003-02-05 00:00:00;160.0;0;;1
2003-02-06 00:00:00;143.0;0;;1
2003-02-07 00:00:00;132.0;0;;1
2003-02-08 00:00:00;132.0;0;;1
2003-02-09 00:00:00;131.0;0;;1
2003-02-10 00:00:00;123.0;0;;1
2003-02-11 00:00:00;114.0;0;;1
2003-02-12 00:00:00;112.0;0;;1
2003-02-13 00:00:00;105.0;0;;1
2003-02-14 00:00:00;103.0;0;;1
2003-02-15 00:00:00;103.0;0;;1
2003-02-16 00:00:00;100.0;0;;1
2003-02-17 00:00:00;100.0;0;;1
2003-02-18 00:00:00;102.0;0;;1
2003-02-19 00:00:00;97.0;0;;1
2003-02-20 00:00:00;98.0;0;;1
2003-02-21 00:00:00;99.0;0;;1
2003-02-22 00:00:00;96.0;0;;1
2003-02-23 00:00:00;92.0;0;;1
2003-02-24 00:00:00;95.0;0;;1
2003-02-25 00:00:00;94.0;0;;1
2003-02-26 00:00:00;89.0;0;;1
2003-02-27 00:00:00;91.0;0;;1
2003-02-28 00:00:00;88.0;0;;1
2003-03-01 00:00:00;91.0;0;;1
2003-03-02 00:00:00;90.0;0;;1
2003-03-03 00:00:00;94.0;0;;1
2003-03-04 00:00:00;93.0;0;;1
2003-03-05 00:00:00;87.0;0;;1
2003-03-06 00:00:00;98.0;0;;1
2003-03-07 00:00:00;107.0;0;;1
2003-03-08 00:00:00;111.0;0;;1
2003-03-09 00:00:00;141.0;0;;1
2003-03-10 00:00:00;140.0;0;;1
2003-03-11 00:00:00;131.0;0;;1
2003-03-12 00:00:00;134.0;0;;1
2003-03-13 00:00:00;113.0;0;;1
2003-03-14 00:00:00;104.0;0;;1
2003-03-15 00:00:00;100.0;0;;1
2003-03-16 00:00:00;100.0;0;;1
2003-03-17 00:00:00;105.0;0;;1
2003-03-18 00:00:00;103.0;0;;1
2003-03-19 00:00:00;108.0;0;;1
2003-03-20 00:00:00;108.0;0;;1
2003-03-21 00:00:00;97.0;0;;1
2003-03-22 00:00:00;94.0;0;;1
2003-03-23 00:00:00;98.0;0;;1
2003-03-24 00:00:00;98.0;0;;1
2003-03-25 00:00:00;97.0;0;;1
2003-03-26 00:00:00;91.0;0;;1
2003-03-27 00:00:00;87.0;0;;1
2003-03-28 00:00:00;88.0;0;;1
2003-03-29 00:00:00;88.0;0;;1
2003-03-30 00:00:00;102.0;0;;1
2003-03-31 00:00:00;111.0;0;;1
2003-04-01 00:00:00;91.0;0;;1
2003-04-02 00:00:00;130.0;0;;1
2003-04-03 00:00:00;121.0;0;;1
2003-04-04 00:00:00;100.0;0;;1
2003-04-05 00:00:00;112.0;0;;1
2003-04-06 00:00:00;87.0;0;;1
2003-04-07 00:00:00;81.0;0;;1
2003-04-08 00:00:00;82.0;0;;1
2003-04-09 00:00:00;81.0;0;;1
2003-04-10 00:00:00;83.0;0;;1
2003-04-11 00:00:00;87.0;0;;1
2003-04-12 00:00:00;84.0;0;;1
2003-04-13 00:00:00;82.0;0;;1
2003-04-14 00:00:00;75.0;0;;1
2003-04-15 00:00:00;75.0;0;;1
2003-04-16 00:00:00;79.0;0;;1
2003-04-17 00:00:00;81.0;0;;1
2003-04-18 00:00:00;79.0;0;;1
2003-04-19 00:00:00;72.0;0;;1
2003-04-20 00:00:00;76.0;0;;1
2003-04-21 00:00:00;80.0;0;;1
2003-04-22 00:00:00;80.0;0;;1
2003-04-23 00:00:00;79.0;0;;1
2003-04-24 00:00:00;74.0;0;;1
2003-04-25 00:00:00;69.0;0;;1
2003-04-26 00:00:00;75.0;0;;1
2003-04-27 00:00:00;109.0;0;;1
2003-04-28 00:00:00;99.0;0;;1
2003-04-29 00:00:00;102.0;0;;1
2003-04-30 00:00:00;96.0;0;;1
2003-05-01 00:00:00;131.0;0;;1
2003-05-02 00:00:00;127.0;0;;1
2003-05-03 00:00:00;131.0;0;;1
2003-05-04 00:00:00;116.0;0;;1
2003-05-05 00:00:00;109.0;0;;1
2003-05-06 00:00:00;107.0;0;;1
2003-05-07 00:00:00;97.0;0;;1
2003-05-08 00:00:00;89.0;0;;1
2003-05-09 00:00:00;93.0;0;;1
2003-05-10 00:00:00;86.0;0;;1
2003-05-11 00:00:00;81.0;0;;1
2003-05-12 00:00:00;87.0;0;;1
2003-05-13 00:00:00;92.0;0;;1
2003-05-14 00:00:00;98.0;0;;1
2003-05-15 00:00:00;110.0;0;;1
2003-05-16 00:00:00;91.0;0;;1
2003-05-17 00:00:00;84.0;0;;1
2003-05-18 00:00:00;89.0;0;;1
2003-05-19 00:00:00;98.0;0;;1
2003-05-20 00:00:00;124.0;0;;1
2003-05-21 00:00:00;117.0;0;;1
2003-05-22 00:00:00;99.0;0;;1
2003-05-23 00:00:00;114.0;0;;1
2003-05-24 00:00:00;138.0;0;;1
2003-05-25 00:00:00;134.0;0;;1
2003-05-26 00:00:00;117.0;0;;1
2003-05-27 00:00:00;105.0;0;;1
2003-05-28 00:00:00;99.0;0;;1
2003-05-29 00:00:00;94.0;0;;1
2003-05-30 00:00:00;96.0;0;;1
2003-05-31 00:00:00;93.0;0;;1
2003-06-01 00:00:00;88.0;0;;1
2003-06-02 00:00:00;84.0;0;;1
2003-06-03 00:00:00;92.0;0;;1
2003-06-04 00:00:00;87.0;0;;1
2003-06-05 00:00:00;98.0;0;;1
2003-06-06 00:00:00;90.0;0;;1
2003-06-07 00:00:00;84.0;0;;1
2003-06-08 00:00:00;83.0;0;;1
2003-06-09 00:00:00;114.0;0;;1
2003-06-10 00:00:00;86.0;0;;1
2003-06-11 00:00:00;89.0;0;;1
2003-06-12 00:00:00;90.0;0;;1
2003-06-13 00:00:00;89.0;0;;1
2003-06-14 00:00:00;88.0;0;;1
2003-06-15 00:00:00;84.0;0;;1
2003-06-16 00:00:00;89.0;0;;1
2003-06-17 00:00:00;80.0;0;;1
2003-06-18 00:00:00;81.0;0;;1
2003-06-19 00:00:00;93.0;0;;1
2003-06-20 00:00:00;121.0;0;;1
2003-06-21 00:00:00;106.0;0;;1
2003-06-22 00:00:00;79.0;0;;1
2003-06-23 00:00:00;72.0;0;;1
2003-06-24 00:00:00;102.0;0;;1
2003-06-25 00:00:00;89.0;0;;1
2003-06-26 00:00:00;76.0;0;;1
2003-06-27 00:00:00;73.0;0;;1
2003-06-28 00:00:00;72.0;0;;1
2003-06-29 00:00:00;78.0;0;;1
2003-06-30 00:00:00;76.0;0;;1
2003-07-01 00:00:00;78.0;0;;1
2003-07-02 00:00:00;88.0;0;;1
2003-07-03 00:00:00;102.0;0;;1
2003-07-04 00:00:00;114.0;0;;1
2003-07-05 00:00:00;126.0;0;;1
2003-07-06 00:00:00;100.0;0;;1
2003-07-07 00:00:00;84.0;0;;1
2003-07-08 00:00:00;79.0;0;;1
2003-07-09 00:00:00;80.0;0;;1
2003-07-10 00:00:00;77.0;0;;1
2003-07-11 00:00:00;75.0;0;;1
2003-07-12 00:00:00;96.0;0;;1
2003-07-13 00:00:00;81.0;0;;1
2003-07-14 00:00:00;74.0;0;;1
2003-07-15 00:00:00;69.0;0;;1
2003-07-16 00:00:00;65.0;0;;1
2003-07-17 00:00:00;71.0;0;;1
2003-07-18 00:00:00;75.0;0;;1
2003-07-19 00:00:00;67.0;0;;1
2003-07-20 00:00:00;62.0;0;;1
2003-07-21 00:00:00;65.0;0;;1
2003-07-22 00:00:00;64.0;0;;1
2003-07-23 00:00:00;63.0;0;;1
2003-07-24 00:00:00;60.0;0;;1
2003-07-25 00:00:00;67.0;0;;1
2003-07-26 00:00:00;67.0;0;;1
2003-07-27 00:00:00;71.0;0;;1
2003-07-28 00:00:00;80.0;0;;1
2003-07-29 00:00:00;69.0;0;;1
2003-07-30 00:00:00;65.0;0;;1
2003-07-31 00:00:00;69.0;0;;1
2003-08-01 00:00:00;68.0;0;;1
2003-08-02 00:00:00;69.0;0;;1
2003-08-03 00:00:00;68.0;0;;1
2003-08-04 00:00:00;63.0;0;;1
2003-08-05 00:00:00;56.0;0;;1
2003-08-06 00:00:00;52.0;0;;1
2003-08-07 00:00:00;50.0;0;;1
2003-08-08 00:00:00;54.0;0;;1
2003-08-09 00:00:00;54.0;0;;1
2003-08-10 00:00:00;53.0;0;;1
2003-08-11 00:00:00;57.0;0;;1
2003-08-12 00:00:00;60.0;0;;1
2003-08-13 00:00:00;69.0;0;;1
2003-08-14 00:00:00;83.0;0;;1
2003-08-15 00:00:00;98.0;0;;1
2003-08-16 00:00:00;77.0;0;;1
2003-08-17 00:00:00;59.0;0;;1
2003-08-18 00:00:00;55.0;0;;1
2003-08-19 00:00:00;69.0;0;;1
2003-08-20 00:00:00;70.0;0;;1
2003-08-21 00:00:00;60.0;0;;1
2003-08-22 00:00:00;71.0;0;;1
2003-08-23 00:00:00;71.0;0;;1
2003-08-24 00:00:00;64.0;0;;1
2003-08-25 00:00:00;55.0;0;;1
2003-08-26 00:00:00;62.0;0;;1
2003-08-27 00:00:00;82.0;0;;1
2003-08-28 00:00:00;68.0;0;;1
2003-08-29 00:00:00;64.0;0;;1
2003-08-30 00:00:00;83.0;0;;1
2003-08-31 00:00:00;84.0;0;;1
2003-09-01 00:00:00;80.0;0;;1
2003-09-02 00:00:00;66.0;0;;1
2003-09-03 00:00:00;64.0;0;;1
2003-09-04 00:00:00;59.0;0;;1
2003-09-05 00:00:00;50.0;0;;1
2003-09-06 00:00:00;48.0;0;;1
2003-09-07 00:00:00;58.0;0;;1
2003-09-08 00:00:00;57.0;0;;1
2003-09-09 00:00:00;67.0;0;;1
2003-09-10 00:00:00;67.0;0;;1
2003-09-11 00:00:00;66.0;0;;1
2003-09-12 00:00:00;64.0;0;;1
2003-09-13 00:00:00;63.0;0;;1
2003-09-14 00:00:00;57.0;0;;1
2003-09-15 00:00:00;59.0;0;;1
2003-09-16 00:00:00;61.0;0;;1
2003-09-17 00:00:00;56.0;0;;1
2003-09-18 00:00:00;57.0;0;;1
2003-09-19 00:00:00;61.0;0;;1
2003-09-20 00:00:00;49.0;0;;1
2003-09-21 00:00:00;58.0;0;;1
2003-09-22 00:00:00;54.0;0;;1
2003-09-23 00:00:00;97.0;0;;1
2003-09-24 00:00:00;77.0;0;;1
2003-09-25 00:00:00;63.0;0;;1
2003-09-26 00:00:00;60.0;0;;1
2003-09-27 00:00:00;79.0;0;;1
2003-09-28 00:00:00;63.0;0;;1
2003-09-29 00:00:00;71.0;0;;1
2003-09-30 00:00:00;78.0;0;;1
2003-10-01 00:00:00;66.0;0;;1
2003-10-02 00:00:00;67.0;0;;1
2003-10-03 00:00:00;66.0;0;;1
2003-10-04 00:00:00;81.0;0;;1
2003-10-05 00:00:00;76.0;0;;1
2003-10-06 00:00:00;71.0;0;;1
2003-10-07 00:00:00;130.0;0;;1
2003-10-08 00:00:00;127.0;0;;1
2003-10-09 00:00:00;134.0;0;;1
2003-10-10 00:00:00;117.0;0;;1
2003-10-11 00:00:00;129.0;0;;1
2003-10-12 00:00:00;94.0;0;;1
2003-10-13 00:00:00;72.0;0;;1
2003-10-14 00:00:00;62.0;0;;1
2003-10-15 00:00:00;59.0;0;;1
2003-10-16 00:00:00;60.0;0;;1
2003-10-17 00:00:00;57.0;0;;1
2003-10-18 00:00:00;59.0;0;;1
2003-10-19 00:00:00;60.0;0;;1
2003-10-20 00:00:00;55.0;0;;1
2003-10-21 00:00:00;57.0;0;;1
2003-10-22 00:00:00;58.0;0;;1
2003-10-23 00:00:00;52.0;0;;1
2003-10-24 00:00:00;61.0;0;;1
2003-10-25 00:00:00;86.0;0;;1
2003-10-26 00:00:00;85.0;0;;1
2003-10-27 00:00:00;75.0;0;;1
2003-10-28 00:00:00;82.0;0;;1
2003-10-29 00:00:00;80.0;0;;1
2003-10-30 00:00:00;81.0;0;;1
2003-10-31 00:00:00;69.0;0;;1
2003-11-01 00:00:00;71.0;0;;1
2003-11-02 00:00:00;73.0;0;;1
2003-11-03 00:00:00;77.0;0;;1
2003-11-04 00:00:00;116.0;0;;1
2003-11-05 00:00:00;71.0;0;;1
2003-11-06 00:00:00;65.0;0;;1
2003-11-07 00:00:00;61.0;0;;1
2003-11-08 00:00:00;52.0;0;;1
2003-11-09 00:00:00;54.0;0;;1
2003-11-10 00:00:00;57.0;0;;1
2003-11-11 00:00:00;60.0;0;;1
2003-11-12 00:00:00;56.0;0;;1
2003-11-13 00:00:00;68.0;0;;1
2003-11-14 00:00:00;64.0;0;;1
2003-11-15 00:00:00;68.0;0;;1
2003-11-16 00:00:00;75.0;0;;1
2003-11-17 00:00:00;72.0;0;;1
2003-11-18 00:00:00;82.0;0;;1
2003-11-19 00:00:00;113.0;0;;1
2003-11-20 00:00:00;89.0;0;;1
2003-11-21 00:00:00;86.0;0;;1
2003-11-22 00:00:00;83.0;0;;1
2003-11-23 00:00:00;87.0;0;;1
2003-11-24 00:00:00;99.0;0;;1
2003-11-25 00:00:00;114.0;0;;1
2003-11-26 00:00:00;101.0;0;;1
2003-11-27 00:00:00;93.0;0;;1
2003-11-28 00:00:00;96.0;0;;1
2003-11-29 00:00:00;85.0;0;;1
2003-11-30 00:00:00;76.0;0;;1
2003-12-01 00:00:00;80.0;0;;1
2003-12-02 00:00:00;69.0;0;;1
2003-12-03 00:00:00;69.0;0;;1
2003-12-04 00:00:00;69.0;0;;1
2003-12-05 00:00:00;72.0;0;;1
2003-12-06 00:00:00;87.0;0;;1
2003-12-07 00:00:00;68.0;0;;1
2003-12-08 00:00:00;73.0;0;;1
2003-12-09 00:00:00;72.0;0;;1
2003-12-10 00:00:00;71.0;0;;1
2003-12-11 00:00:00;88.0;0;;1
2003-12-12 00:00:00;87.0;0;;1
2003-12-13 00:00:00;90.0;0;;1
2003-12-14 00:00:00;162.0;0;;1
2003-12-15 00:00:00;162.0;0;;1
2003-12-16 00:00:00;123.0;0;;1
2003-12-17 00:00:00;114.0;0;;1
2003-12-18 00:00:00;105.0;0;;1
2003-12-19 00:00:00;102.0;0;;1
2003-12-20 00:00:00;103.0;0;;1
2003-12-21 00:00:00;135.0;0;;1
2003-12-22 00:00:00;155.0;0;;1
2003-12-23 00:00:00;111.0;0;;1
2003-12-24 00:00:00;107.0;0;;1
2003-12-25 00:00:00;117.0;0;;1
2003-12-26 00:00:00;121.0;0;;1
2003-12-27 00:00:00;123.0;0;;1
2003-12-28 00:00:00;127.0;0;;1
2003-12-29 00:00:00;139.0;0;;1
2003-12-30 00:00:00;117.0;0;;1
2003-12-31 00:00:00;103.0;0;;1
2004-01-01 00:00:00;90.0;0;;1
2004-01-02 00:00:00;86.0;0;;1
2004-01-03 00:00:00;82.0;0;;1
2004-01-04 00:00:00;88.0;0;;1
2004-01-05 00:00:00;90.0;0;;1
2004-01-06 00:00:00;83.0;0;;1
2004-01-07 00:00:00;117.0;0;;1
2004-01-08 00:00:00;96.0;0;;1
2004-01-09 00:00:00;99.0;0;;1
2004-01-10 00:00:00;115.0;0;;1
2004-01-11 00:00:00;106.0;0;;1
2004-01-12 00:00:00;147.0;0;;1
2004-01-13 00:00:00;137.0;0;;1
2004-01-14 00:00:00;168.0;0;;1
2004-01-15 00:00:00;155.0;0;;1
2004-01-16 00:00:00;157.0;0;;1
2004-01-17 00:00:00;177.0;0;;1
2004-01-18 00:00:00;147.0;0;;1
2004-01-19 00:00:00;160.0;0;;1
2004-01-20 00:00:00;170.0;0;;1
2004-01-21 00:00:00;145.0;0;;1
2004-01-22 00:00:00;129.0;0;;1
2004-01-23 00:00:00;124.0;0;;1
2004-01-24 00:00:00;119.0;0;;1
2004-01-25 00:00:00;124.0;0;;1
2004-01-26 00:00:00;112.0;0;;1
2004-01-27 00:00:00;110.0;0;;1
2004-01-28 00:00:00;118.0;0;;1
2004-01-29 00:00:00;128.0;0;;1
2004-01-30 00:00:00;117.0;0;;1
2004-01-31 00:00:00;120.0;0;;1
2004-02-01 00:00:00;191.0;0;;1
2004-02-02 00:00:00;197.0;0;;1
2004-02-03 00:00:00;204.0;0;;1
2004-02-04 00:00:00;200.0;0;;1
2004-02-05 00:00:00;215.0;0;;1
2004-02-06 00:00:00;218.0;0;;1
2004-02-07 00:00:00;229.0;0;;1
2004-02-08 00:00:00;256.0;0;;1
2004-02-09 00:00:00;249.0;0;;1
2004-02-10 00:00:00;221.0;0;;1
2004-02-11 00:00:00;216.0;0;;1
2004-02-12 00:00:00;216.0;0;;1
2004-02-13 00:00:00;196.0;0;;1
2004-02-14 00:00:00;178.0;0;;1
2004-02-15 00:00:00;164.0;0;;1
2004-02-16 00:00:00;153.0;0;;1
2004-02-17 00:00:00;148.0;0;;1
2004-02-18 00:00:00;145.0;0;;1
2004-02-19 00:00:00;133.0;0;;1
2004-02-20 00:00:00;124.0;0;;1
2004-02-21 00:00:00;121.0;0;;1
2004-02-22 00:00:00;132.0;0;;1
2004-02-23 00:00:00;137.0;0;;1
2004-02-24 00:00:00;136.0;0;;1
2004-02-25 00:00:00;147.0;0;;1
2004-02-26 00:00:00;145.0;0;;1
2004-02-27 00:00:00;130.0;0;;1
2004-02-28 00:00:00;121.0;0;;1
2004-02-29 00:00:00;112.0;0;;1
2004-03-01 00:00:00;108.0;0;;1
2004-03-02 00:00:00;116.0;0;;1
2004-03-03 00:00:00;118.0;0;;1
2004-03-04 00:00:00;109.0;0;;1
2004-03-05 00:00:00;102.0;0;;1
2004-03-06 00:00:00;110.0;0;;1
2004-03-07 00:00:00;113.0;0;;1
2004-03-08 00:00:00;108.0;0;;1
2004-03-09 00:00:00;102.0;0;;1
2004-03-10 00:00:00;99.0;0;;1
2004-03-11 00:00:00;101.0;0;;1
2004-03-12 00:00:00;98.0;0;;1
2004-03-13 00:00:00;105.0;0;;1
2004-03-14 00:00:00;110.0;0;;1
2004-03-15 00:00:00;111.0;0;;1
2004-03-16 00:00:00;114.0;0;;1
2004-03-17 00:00:00;111.0;0;;1
2004-03-18 00:00:00;113.0;0;;1
2004-03-19 00:00:00;119.0;0;;1